GFSCGP_925_rhum_216.txt.gz
RH
39 46 46 32 33 26 23 21 22 18 15 14 16 15 12 10 11 11 11 10 10 10 8 7 7 7 11 36 55 64 76 78 85 83 81 84 86 80 77 72 67 65 62 60
47 52 37 28 28 29 29 30 27 20 16 14 15 14 12 9 9 9 10 11 12 10 9 10 8 7 9 15 48 65 71 81 82 85 81 79 82 88 80 78 75 70 65 64
51 40 32 29 29 30 28 28 25 21 16 15 14 15 13 9 10 8 10 9 9 10 10 10 11 8 8 15 42 62 66 73 80 83 88 84 80 79 87 83 78 74 72 68
47 36 36 31 31 28 32 22 19 19 20 22 13 22 14 11 10 9 8 8 9 10 10 10 11 10 8 12 16 53 62 69 78 81 86 84 81 80 79 83 78 72 72 71
41 38 40 39 31 25 28 22 21 20 20 19 18 21 14 13 12 10 9 9 10 10 9 10 12 10 11 18 31 48 59 66 72 74 77 82 82 81 77 78 77 76 73 72
36 28 30 34 29 24 22 22 23 22 26 33 23 22 16 14 12 10 9 9 9 9 12 12 26 41 43 42 39 42 50 60 60 68 77 79 83 85 82 80 79 78 74 73
40 38 29 26 32 27 26 28 39 38 38 32 20 23 18 14 12 11 11 9 8 12 17 55 82 85 80 68 60 53 50 53 55 62 75 77 82 83 80 78 82 85 87 84
56 58 38 28 30 33 31 29 49 49 43 29 20 27 19 14 11 10 11 11 9 11 38 68 79 81 83 72 60 56 56 59 53 48 47 58 79 83 80 78 78 77 76 76
54 52 28 27 25 26 32 33 24 36 32 39 26 17 16 15 12 12 14 12 16 20 51 71 83 83 84 73 62 60 68 78 73 71 66 64 76 84 81 77 74 71 69 70
46 59 33 26 24 24 27 24 37 40 47 46 34 31 26 20 17 18 20 14 16 39 62 70 81 88 85 74 64 68 69 66 78 84 87 86 84 84 84 84 83 81 80 82
52 53 47 37 32 32 27 30 28 30 36 41 40 30 20 20 20 20 20 21 31 55 56 65 83 85 86 82 84 79 76 71 77 84 89 91 90 89 87 86 86 84 85 90
52 57 64 54 37 28 26 23 27 39 39 38 32 31 18 15 13 12 17 21 24 45 50 72 84 94 96 96 94 89 82 77 79 86 86 95 93 94 96 94 94 95 96 96
56 74 84 63 45 35 38 33 30 30 30 36 43 35 17 16 18 20 19 17 22 38 44 88 95 94 95 98 95 86 77 76 95 98 91 96 99 99 100 100 98 100 98 99
72 87 85 72 54 41 41 32 29 33 44 36 34 28 24 22 17 15 15 16 19 25 35 82 91 93 94 97 100 99 89 86 96 100 99 99 100 100 100 100 100 99 100 100
73 96 97 94 88 83 75 76 66 35 32 42 32 28 22 24 25 19 17 17 19 18 32 69 86 92 94 97 100 100 99 94 96 100 99 100 100 100 100 100 100 100 100 100
80 97 97 100 95 95 100 72 73 74 56 30 28 28 18 17 21 21 22 24 30 35 38 63 73 85 92 92 97 100 100 100 98 100 100 100 100 99 100 100 100 100 99 95
67 79 90 89 60 65 86 71 62 66 60 49 40 28 21 19 19 19 19 16 25 32 36 50 68 79 84 91 95 98 99 100 100 100 99 97 99 99 99 97 92 91 90 88
74 76 88 82 77 93 52 52 48 55 54 52 45 36 23 21 18 20 20 17 21 27 30 36 48 67 76 84 92 93 97 100 100 99 98 94 94 93 90 90 90 90 88 84
72 77 89 94 78 56 48 48 49 61 57 41 50 43 35 24 24 24 19 20 22 25 30 35 37 49 68 84 89 94 98 99 96 97 97 94 90 91 88 87 86 81 76 73
68 69 89 97 96 78 44 34 31 35 55 34 47 45 42 34 38 28 21 20 26 32 34 42 35 50 72 85 91 92 93 93 94 95 96 93 88 85 86 81 67 66 66 69
84 79 94 84 95 75 40 34 32 58 54 28 32 33 34 37 30 22 20 26 29 34 38 36 61 72 74 87 90 89 92 91 92 96 92 89 86 84 75 64 65 69 69 68
64 85 90 85 88 88 44 42 54 41 32 28 24 26 32 35 33 37 46 37 33 50 77 73 82 90 94 91 87 90 92 92 88 86 83 80 77 71 68 63 68 62 65 80
78 70 67 69 74 57 43 42 34 34 33 32 37 38 38 40 36 38 45 51 71 85 94 92 95 99 99 95 91 91 90 81 82 83 84 79 74 70 66 67 78 90 92 90
66 55 68 59 47 42 42 35 32 30 35 36 41 43 40 46 43 36 50 84 94 94 94 86 84 85 83 83 86 85 79 79 79 84 86 80 78 82 84 85 83 82 93 97
63 60 62 66 55 44 40 36 34 38 38 35 30 30 35 35 41 41 76 87 79 74 71 72 78 81 83 83 83 82 78 75 79 85 88 86 84 78 81 79 82 82 73 68
60 62 80 74 48 47 41 33 33 35 37 38 42 41 40 60 71 77 84 69 67 69 73 77 82 82 81 78 76 74 73 73 79 86 87 82 79 78 79 82 88 86 88 89

GFSCGP_925_rhum_222.txt.gz
RH
45 57 57 49 41 34 25 28 25 22 19 17 20 21 18 16 17 17 16 15 14 14 11 9 7 11 39 43 50 51 62 66 72 76 77 79 72 72 67 58 55 53 54 55
48 51 34 42 41 36 33 34 34 28 25 21 24 24 19 18 17 15 15 15 15 14 12 12 9 8 9 27 35 52 56 70 69 74 72 76 80 76 70 70 67 60 59 59
45 28 34 41 44 44 40 39 36 33 25 24 20 21 19 16 17 15 15 14 13 13 12 12 11 10 12 12 12 31 48 56 65 72 80 78 76 78 77 74 68 62 61 60
48 29 36 36 43 41 49 34 32 33 32 37 18 20 13 11 11 14 13 13 13 13 13 12 11 10 10 12 16 19 49 59 62 77 83 81 77 84 80 80 81 78 70 66
51 42 37 41 46 38 42 31 36 32 32 28 27 35 24 17 16 13 16 15 14 13 13 12 12 10 8 7 8 21 35 63 74 77 82 85 82 81 79 81 80 82 83 78
69 48 38 38 36 38 33 33 32 32 36 43 31 30 18 15 19 15 14 15 14 13 12 12 10 9 7 8 8 10 44 65 75 83 84 83 86 85 84 82 88 87 88 86
68 66 56 41 50 42 41 40 58 56 54 49 25 34 21 17 16 15 16 15 13 13 13 14 13 18 18 15 16 17 44 77 84 87 88 88 84 82 78 82 87 92 94 93
71 73 55 47 45 52 48 47 62 56 46 40 29 38 22 15 13 14 15 17 14 15 15 15 16 24 27 27 35 32 54 79 90 89 89 91 86 83 83 82 81 80 79 75
75 76 38 40 36 35 42 54 40 53 45 52 27 24 20 19 19 21 22 20 19 18 18 18 18 24 26 31 34 41 59 82 90 91 93 89 88 92 89 86 83 81 78 77
65 72 49 42 36 34 37 32 47 51 73 62 49 38 24 21 18 18 21 22 21 21 21 24 24 26 36 40 48 57 56 76 79 86 82 85 87 87 88 87 88 87 87 87
60 77 60 57 54 50 49 47 45 42 48 59 50 35 34 28 22 22 18 16 18 21 23 29 44 46 51 70 72 68 72 74 70 74 79 79 83 88 90 90 90 92 93 94
54 76 89 68 46 48 41 45 42 58 60 54 44 36 22 26 25 27 26 23 20 19 25 55 75 88 90 88 84 78 76 74 71 67 62 63 62 63 65 72 80 92 95 95
70 94 95 75 65 55 66 54 47 40 42 54 66 51 24 20 20 24 25 24 23 23 28 66 90 96 95 92 89 86 81 77 78 76 78 80 78 82 88 91 94 93 92 93
74 84 77 84 81 85 82 64 57 54 63 53 49 43 33 33 32 30 27 23 23 24 23 50 89 96 95 92 91 88 88 83 94 95 95 95 97 98 98 97 100 97 91 98
84 100 94 84 71 78 91 77 77 90 62 73 64 51 35 34 40 32 29 28 26 25 24 31 64 90 94 94 91 87 80 84 93 99 99 98 98 98 98 98 99 98 99 99
65 100 96 94 80 86 86 82 85 87 75 71 94 89 53 46 41 42 38 32 30 27 25 26 26 67 89 91 90 90 91 94 100 100 100 100 98 99 100 100 99 100 100 100
87 85 91 84 74 87 98 84 75 98 98 85 99 76 55 52 47 50 47 40 38 34 30 30 34 37 72 83 82 87 91 95 99 98 97 100 100 100 97 94 96 100 100 100
86 87 83 86 79 95 55 45 52 60 57 76 87 72 43 43 39 44 43 44 41 40 36 32 34 43 50 59 76 80 88 92 100 99 97 98 99 100 99 96 100 100 100 100
83 84 90 91 81 58 56 52 69 70 72 59 49 42 41 37 38 47 45 47 45 43 41 40 33 30 29 49 66 87 98 98 98 95 95 98 99 99 100 100 100 100 100 100
79 80 86 100 87 82 44 38 34 48 68 46 48 46 44 45 63 44 37 37 41 47 48 50 35 32 39 36 70 95 98 98 97 98 98 99 100 100 100 100 100 100 100 100
93 93 93 91 90 76 50 38 38 71 54 32 34 38 46 55 43 31 36 44 41 41 34 29 32 43 37 40 75 96 93 97 92 94 96 100 100 100 100 100 100 100 100 100
67 94 94 92 96 92 49 42 52 39 32 30 36 35 38 35 33 49 53 46 40 38 39 38 45 40 34 41 74 91 94 82 90 95 100 100 100 100 100 100 100 100 99 99
79 60 79 79 75 57 44 42 37 34 35 33 37 32 33 43 39 36 39 45 48 47 46 44 42 38 36 44 58 84 79 83 94 100 100 100 100 100 100 100 100 100 99 100
92 72 87 74 54 50 43 40 43 42 42 36 37 38 38 40 46 48 43 53 51 56 53 43 41 44 57 67 75 77 84 96 100 100 100 100 100 100 100 100 100 98 97 98
75 80 88 87 69 56 49 45 47 49 49 45 43 42 42 43 44 44 40 36 37 42 40 38 47 52 53 84 94 99 100 100 100 100 100 100 100 100 100 100 100 99 95 86
76 70 86 76 83 95 72 67 71 72 67 60 51 46 42 42 42 39 39 37 35 36 43 64 69 71 73 97 100 100 100 100 100 99 99 99 100 100 100 100 98 90 91 90

GFSCGP_925_rhum_225.txt.gz
RH
44 40 43 36 37 29 22 23 20 21 17 16 16 17 13 12 14 14 13 13 13 13 10 10 15 38 49 49 60 68 72 59 73 81 83 83 85 84 84 82 69 63 60 60
45 40 28 30 39 41 38 33 29 25 22 22 20 17 16 14 14 13 12 12 12 13 12 12 13 13 23 42 50 59 67 72 68 74 73 72 77 79 80 84 81 68 66 67
38 30 26 32 38 47 44 42 35 30 24 22 22 20 18 14 14 14 14 11 10 12 12 12 14 16 17 24 39 51 59 67 66 68 78 79 81 81 86 84 82 70 71 70
53 36 30 31 37 38 44 37 37 35 34 34 19 18 11 11 12 12 10 14 13 12 12 12 12 14 18 11 18 33 49 68 77 78 78 75 74 75 74 75 77 81 87 84
55 46 46 34 35 36 42 32 36 36 37 35 29 29 18 14 12 10 10 13 13 14 13 12 12 13 13 16 12 12 31 62 74 80 74 78 75 70 71 78 82 86 90 85
51 53 54 37 28 34 31 37 36 34 36 48 32 32 20 16 15 12 12 15 14 13 14 14 12 15 12 11 11 14 21 36 68 78 77 79 75 73 78 88 88 91 94 91
40 47 48 50 52 29 38 44 55 55 52 50 26 33 25 14 13 13 13 12 14 14 16 16 14 12 13 16 9 10 42 55 62 81 83 83 78 78 80 84 90 94 97 99
45 47 44 43 49 45 41 40 46 46 38 31 24 35 27 15 14 12 12 15 16 16 18 17 14 16 16 21 21 18 15 38 67 83 82 82 83 82 81 82 85 93 92 90
55 59 42 40 37 37 47 55 36 45 46 52 29 24 19 19 17 16 17 16 18 19 19 17 18 18 21 23 17 17 24 34 53 77 86 87 90 87 86 86 90 93 93 89
44 50 37 40 38 35 36 35 59 61 72 62 40 33 22 20 18 16 18 20 18 20 19 20 20 24 30 36 40 40 36 41 52 77 87 90 92 91 89 96 96 93 91 84
56 64 48 39 39 47 44 47 44 41 50 61 54 40 24 26 26 22 18 16 19 20 21 20 21 33 45 58 65 64 68 65 72 85 88 91 95 97 99 98 92 85 87 85
51 52 64 55 38 40 44 44 42 59 52 44 45 42 22 25 19 18 23 23 21 21 22 20 29 35 44 56 72 73 76 77 79 84 90 97 98 99 99 97 88 86 88 91
97 82 68 44 40 42 54 53 62 48 45 51 57 44 23 22 20 21 25 20 20 24 21 21 26 33 43 55 71 80 84 81 79 84 91 96 96 97 98 93 89 86 89 86
83 100 93 78 61 58 73 60 67 94 96 70 56 39 31 31 32 26 25 27 24 25 25 23 26 33 42 64 78 82 86 91 92 89 88 93 94 90 82 75 78 83 92 96
76 99 84 74 70 67 80 83 70 84 93 99 75 56 40 31 30 30 37 32 32 30 26 26 26 27 31 56 80 87 87 97 99 99 93 98 100 99 96 98 98 99 99 99
74 93 99 96 78 74 77 70 80 61 63 91 98 96 62 49 43 44 40 39 38 34 32 30 29 29 32 53 72 83 87 93 100 98 96 99 100 100 100 99 96 98 99 100
88 75 84 80 54 58 84 70 63 64 73 69 90 60 50 59 55 47 42 38 38 36 34 35 34 32 32 34 49 74 84 90 96 98 99 98 98 98 97 99 99 99 100 100
72 81 82 82 64 90 44 31 43 57 49 60 51 49 49 44 35 36 32 34 34 35 35 38 36 36 33 34 44 60 78 90 92 93 96 100 99 99 100 99 100 100 100 100
71 75 83 85 72 49 43 43 47 47 46 42 51 48 45 42 41 41 32 32 34 37 44 43 44 40 32 32 34 53 76 88 92 90 92 96 100 100 100 100 99 99 100 100
69 74 83 84 86 73 42 29 30 40 66 34 45 52 52 48 57 40 29 35 36 39 45 48 37 36 37 37 38 59 74 88 90 90 92 93 97 99 100 100 100 100 100 99
84 95 95 92 92 66 36 34 37 64 50 31 34 39 47 51 38 30 35 37 36 37 39 32 32 35 37 40 42 62 76 88 81 89 94 94 99 100 100 100 99 100 100 100
59 81 85 79 89 84 37 39 48 38 34 33 34 36 38 39 38 39 37 40 33 29 28 28 31 36 37 45 45 46 60 67 83 94 99 99 100 100 100 100 100 100 100 100
84 74 74 78 60 50 42 40 35 38 41 38 36 34 37 38 36 36 38 35 36 34 27 28 33 36 40 43 42 43 49 60 82 95 100 100 100 100 100 100 100 100 100 100
70 70 74 81 49 62 57 48 47 62 62 58 53 46 42 43 42 40 36 36 33 33 32 33 38 40 41 36 45 51 48 57 82 96 100 100 100 100 100 100 100 100 100 100
66 62 59 60 55 54 49 56 64 63 60 56 50 50 49 49 47 41 37 35 34 37 39 38 38 37 36 33 45 54 63 82 93 98 100 100 100 100 100 100 100 100 100 98
61 66 76 75 56 72 67 65 68 68 65 62 63 63 59 52 48 42 43 38 35 34 35 37 38 37 37 43 59 70 89 94 99 100 100 100 100 100 100 99 100 100 100 100

GFSCGP_925_rhum_231.txt.gz
RH
17 28 30 22 18 15 12 9 9 8 6 5 7 7 5 4 3 4 5 6 6 7 11 14 16 17 19 18 20 25 38 48 52 57 57 54 54 54 55 52 50 52 56 66
22 26 19 17 15 15 15 14 12 8 6 7 7 8 6 4 4 4 4 5 5 5 6 8 14 18 19 20 22 26 31 45 52 53 50 49 48 49 50 52 50 53 56 62
26 15 15 17 16 18 16 18 15 12 8 9 10 12 9 5 4 4 4 4 5 6 6 6 7 12 16 20 23 25 31 40 50 49 50 47 47 46 47 49 52 54 57 62
26 16 11 15 18 16 20 15 16 16 14 14 11 17 10 7 6 5 6 6 6 6 6 6 6 7 8 11 17 23 27 34 45 54 48 48 47 46 46 49 50 54 59 63
30 22 15 13 15 15 18 16 18 20 20 20 17 17 13 8 6 6 6 6 6 6 6 6 6 6 7 8 12 17 21 26 34 47 57 51 52 49 46 49 51 54 58 64
26 23 17 14 11 11 14 17 19 21 24 30 22 20 16 11 8 7 5 5 6 5 5 5 6 6 6 6 7 14 21 21 22 36 53 58 53 53 48 47 50 54 59 64
21 21 24 20 25 15 14 22 30 32 36 40 19 21 18 10 8 7 7 5 5 6 6 6 6 6 6 6 8 11 19 23 24 28 43 60 58 56 55 48 49 53 56 62
14 16 13 18 24 23 20 21 29 35 30 25 18 22 15 10 9 8 8 8 8 8 8 8 8 7 6 7 8 12 17 24 27 28 36 51 64 59 59 54 49 51 53 58
23 16 7 5 7 20 24 22 16 24 20 22 14 13 12 10 9 9 9 9 9 9 8 8 9 9 10 10 10 14 16 23 24 27 32 46 57 64 58 56 54 50 53 55
45 44 18 14 12 12 15 15 25 24 35 34 20 17 13 12 11 10 10 11 10 10 9 8 8 9 11 12 12 18 24 24 22 24 32 38 52 57 61 57 55 54 53 58
46 53 31 18 20 25 21 23 21 21 24 31 28 18 11 11 11 12 12 12 13 14 14 10 9 10 12 14 17 20 27 34 35 33 30 38 43 49 54 58 56 56 57 59
85 73 68 33 17 13 16 23 37 33 28 25 28 22 10 10 9 11 10 10 11 11 12 13 13 13 13 14 14 18 23 31 36 40 44 41 41 47 51 56 58 57 58 60
58 63 57 37 25 19 22 20 31 45 44 41 34 27 13 12 12 13 14 13 13 13 13 12 12 15 14 14 16 18 23 28 38 44 43 44 47 49 52 55 59 59 61 63
50 56 56 56 46 48 50 38 26 27 81 65 43 32 20 22 21 18 18 18 17 16 14 16 17 17 16 19 19 20 19 28 38 43 48 48 44 48 55 58 61 64 64 67
56 78 55 46 38 35 44 34 31 33 33 75 57 41 44 32 26 26 22 21 22 22 21 20 20 21 20 20 19 20 20 23 30 42 49 52 50 50 54 61 62 66 68 70
46 73 60 80 49 40 38 32 34 33 32 30 29 31 22 22 23 22 21 20 21 20 20 21 21 19 20 21 21 20 23 27 31 41 51 58 60 55 57 61 66 68 70 74
54 60 66 81 43 41 64 55 39 30 25 26 36 28 21 19 17 18 17 16 18 17 16 18 20 20 20 20 22 22 24 27 29 36 46 57 68 74 69 74 72 74 79 80
58 61 60 83 54 85 37 21 19 20 18 18 19 18 17 16 15 14 13 13 13 14 16 16 16 19 21 20 25 24 25 26 29 32 42 51 65 80 86 84 83 92 92 92
42 55 77 88 68 42 28 22 21 22 22 17 18 17 15 15 16 18 14 13 14 15 18 20 21 21 22 24 27 23 24 26 29 31 38 46 63 72 76 88 94 95 95 99
30 44 70 75 80 71 32 19 17 30 50 31 38 40 39 32 36 24 16 19 19 21 22 23 22 22 23 21 21 20 21 23 25 32 41 49 58 70 77 76 87 99 99 100
45 60 84 72 77 49 24 48 35 42 53 42 36 37 40 48 48 37 34 30 24 24 22 21 21 21 21 20 20 19 20 22 20 23 33 50 55 59 77 85 89 94 99 100
46 54 75 79 84 79 52 57 73 64 37 34 40 37 41 39 37 37 33 30 28 28 26 23 21 21 20 21 21 19 21 22 20 21 26 32 49 62 75 83 96 100 100 100
57 46 86 66 57 51 32 34 39 28 30 38 39 36 37 38 38 36 37 36 33 29 27 25 23 21 20 20 20 19 21 23 22 23 25 30 36 52 68 85 100 100 100 100
32 29 52 61 38 38 33 26 26 34 43 38 34 32 34 39 39 39 37 36 34 30 27 25 24 23 23 20 20 20 19 22 23 22 27 34 40 47 74 99 100 100 100 100
39 33 37 38 32 31 30 33 34 42 53 33 35 37 39 40 41 40 41 41 39 37 36 33 28 27 25 24 22 21 20 21 22 21 26 34 41 55 99 100 100 100 100 98
37 42 51 57 35 38 39 29 28 38 44 42 42 48 50 49 48 44 44 43 43 42 43 42 40 35 30 27 24 23 24 22 22 24 31 41 51 90 100 100 100 100 100 100

GFSCGP_925_rhum_234.txt.gz
RH
24 20 20 22 22 20 17 13 10 10 9 10 10 7 5 5 6 6 5 5 6 7 11 16 17 15 14 18 28 39 47 48 60 66 68 65 63 60 59 58 55 54 56 63
23 30 15 12 17 18 18 19 18 12 9 9 10 10 6 5 6 6 5 4 5 6 7 14 18 16 17 17 27 34 45 48 54 64 64 64 61 59 59 59 57 54 54 62
21 17 16 14 14 18 19 18 18 17 13 10 10 10 8 6 6 5 5 5 5 6 7 10 18 19 21 20 23 30 42 49 51 57 60 61 58 57 58 58 58 55 54 56
22 15 17 18 15 15 22 15 14 14 16 21 11 14 12 9 8 7 6 5 5 6 6 7 10 19 21 22 22 26 32 47 52 52 57 57 57 56 55 56 56 56 56 57
27 22 20 22 18 12 17 14 14 14 16 22 21 20 11 10 10 9 8 6 8 8 8 7 9 10 18 21 23 24 29 40 48 55 51 55 54 52 51 51 52 54 56 58
20 17 24 28 25 14 10 13 15 16 19 30 23 24 19 11 11 9 7 6 7 7 8 8 7 7 8 12 12 15 21 27 44 53 57 52 54 52 51 51 51 53 56 60
22 16 14 18 25 20 12 17 26 30 31 34 20 23 21 13 11 11 11 9 7 8 8 8 8 8 7 8 10 16 18 18 22 40 57 60 54 54 54 53 55 54 57 60
38 33 10 13 28 38 19 17 26 42 35 28 18 25 19 13 11 11 11 11 11 11 15 12 10 12 10 10 6 8 18 23 24 24 27 54 63 59 57 56 53 55 56 59
52 43 30 22 11 24 36 31 15 25 27 31 20 15 15 14 13 13 13 12 12 13 13 12 10 13 12 11 11 12 13 23 26 28 29 28 36 63 59 57 58 54 53 56
36 55 28 24 21 11 9 9 31 31 36 40 26 23 18 17 16 14 13 15 13 12 13 13 14 17 11 10 12 13 14 18 21 25 28 30 31 44 64 62 60 60 55 55
50 49 41 30 27 24 25 12 15 20 33 41 32 23 15 15 16 15 14 11 15 14 16 18 18 17 14 13 14 17 22 22 26 30 30 29 32 35 54 66 65 60 60 56
67 60 57 36 22 20 27 35 54 65 32 27 44 47 20 19 13 12 14 15 16 16 17 16 18 17 16 17 16 15 19 28 30 36 39 40 41 40 41 53 63 64 61 59
49 54 61 38 23 39 51 37 39 59 60 58 64 39 18 18 16 19 27 25 23 23 23 19 17 17 18 16 20 21 22 23 30 36 41 47 47 44 43 49 54 58 62 61
42 52 58 65 47 64 79 60 47 40 83 88 80 62 38 30 28 29 27 24 22 22 22 22 24 25 24 23 22 22 21 21 22 29 36 41 47 51 49 48 48 57 60 63
43 78 61 52 45 44 45 46 48 47 41 54 45 48 38 31 26 24 24 23 20 21 19 20 22 28 26 22 21 22 22 22 24 27 32 40 48 54 53 52 54 54 58 63
36 62 51 67 49 40 44 36 32 30 29 26 24 28 20 18 18 19 19 19 19 19 18 18 18 19 23 23 24 22 22 24 24 30 33 40 47 58 62 56 56 63 63 65
43 49 55 70 42 43 63 40 29 31 28 29 35 26 19 19 18 19 19 16 16 16 16 15 17 18 19 24 24 24 24 25 28 30 32 36 44 55 66 68 69 71 67 68
48 45 52 74 55 78 37 21 21 22 22 22 24 30 29 26 27 23 20 29 35 30 21 25 26 24 24 23 23 25 27 25 25 28 33 35 41 53 72 78 75 78 82 78
41 50 71 78 67 45 36 27 25 31 38 39 58 42 31 27 27 26 30 36 37 37 33 30 26 25 24 24 25 25 29 26 25 27 29 33 43 50 66 80 83 84 89 88
30 45 67 78 78 68 32 20 27 34 54 46 55 66 49 41 52 40 39 36 37 35 33 33 32 26 24 24 23 26 24 23 25 25 24 28 36 49 64 73 81 87 86 92
44 48 81 79 92 60 41 45 41 57 67 46 30 34 53 57 41 38 38 35 33 34 32 31 30 30 30 27 25 25 25 26 23 22 24 24 32 44 51 62 77 86 95 94
44 52 65 60 74 89 51 62 82 60 48 44 36 34 39 39 38 37 34 34 34 33 31 30 30 29 28 27 26 26 25 23 24 22 24 24 26 30 48 59 78 86 86 100
57 41 52 56 68 47 34 64 61 54 68 56 56 44 37 39 39 39 39 37 35 33 33 33 33 33 32 29 26 26 26 24 24 22 24 24 25 29 36 55 70 92 90 100
39 33 51 49 34 28 27 24 23 35 35 38 42 38 36 43 44 44 44 44 42 37 36 38 39 38 37 35 33 29 27 26 24 23 26 26 26 33 40 50 83 98 100 100
47 40 44 45 38 32 27 25 35 29 26 28 35 39 39 44 49 51 50 46 42 42 43 44 45 45 44 42 40 38 32 28 26 25 26 27 26 33 40 72 98 100 99 99
43 46 57 63 43 50 50 41 38 28 33 44 47 50 48 51 54 49 50 47 46 49 53 56 55 52 48 46 44 42 42 37 31 29 28 30 32 42 61 87 94 100 100 100